Regional Weather Roundup
Issued by NWS Raleigh/Durham, NC

Home | Current Version | Previous Version | Text Only | Print | Product List | Glossary On
Versions: 1 2 3 4 5 6 7 8 9 10 11 12 13 14 15 16 17 18 19 20 21 22 23 24 25 26 27
000
ASUS42 KRAH 232310
RWRRAH
NORTH CAROLINA WEATHER ROUNDUP
NATIONAL WEATHER SERVICE RALEIGH NC
700 PM EDT MON OCT 23 2017

NOTE: "FAIR" INDICATES FEW OR NO CLOUDS BELOW 12,000 FEET WITH NO
SIGNIFICANT WEATHER AND/OR OBSTRUCTIONS TO VISIBILITY.

NCZ001-053-055-056-065-067-240000-
WESTERN NORTH CAROLINA

CITY           SKY/WX    TMP DP  RH WIND       PRES   REMARKS
ASHEVILLE      CLEAR     62  51  67 W3        29.81R
JEFFERSON      MOCLDY    56  54  92 W5        29.83R
HICKORY        NOT AVBL
RUTHERFORDTON  PTCLDY    65  65  99 S7        29.79R
MOUNT AIRY     LGT RAIN  65  61  85 S8G17     29.84R
BOONE          CLEAR     55  54  95 SW6       29.84R
$$

NCZ021-022-025-041-071-084-088-240000-
CENTRAL NORTH CAROLINA

CITY           SKY/WX    TMP DP  RH WIND       PRES   REMARKS
CHARLOTTE      MOCLDY    63  61  93 S8        29.80F
GREENSBORO     TSTM      66  66 100 W10       29.83R FOG
WINSTON-SALEM  RAIN      63  61  93 S6        29.82F FOG
RALEIGH-DURHAM MOCLDY    72  63  73 S16G22    29.85R
FORT BRAGG     CLOUDY    70  68  94 S13G23    29.84R
FAYETTEVILLE   CLOUDY    72  69  90 SE17G25   29.86F
BURLINGTON     LGT RAIN  72  65  78 SE14G24   29.80F
LAURINBURG     LGT RAIN  72  71  97 S21G28    29.84R
$$

NCZ011-015-027-028-043-044-047-080-103-240000-
NORTHEASTERN NORTH CAROLINA

CITY           SKY/WX    TMP DP  RH WIND       PRES   REMARKS
ROCKY MT-WILSO CLOUDY    73  66  78 SE10G18   29.89F
GREENVILLE     LGT RAIN  70  70 100 SE13      29.98S
WASHINGTON     LGT RAIN  72  69  89 S9G22     29.98R
ELIZABETH CITY CLOUDY    74  67  78 S9        29.99F
MANTEO         CLOUDY   N/A N/A N/A S13G20    30.02F
CAPE HATTERAS  CLOUDY    77  69  76 S20       30.02F
$$

NCZ078-087-090-091-093-098-101-240000-
SOUTHEASTERN NORTH CAROLINA

CITY           SKY/WX    TMP DP  RH WIND       PRES   REMARKS
LUMBERTON      LGT RAIN  71  70  96 SE9       29.85F
GOLDSBORO      CLOUDY    74  66  75 SE8       29.88F
KINSTON        CLOUDY    72  70  94 SE9       29.93F
KENANSVILLE    CLOUDY    73  68  83 SE6       29.91F
NEW BERN       LGT RAIN  70  70 100 SE10      29.99F
CHERRY POINT   LGT RAIN  71  70  96 S12       30.00S
BEAUFORT       CLOUDY    73  71  93 S13       30.00S
JACKSONVILLE   CLOUDY    73  72  96 SE10      29.93F
WILMINGTON     PTCLDY    77  70  79 S14G20    29.92F
$$





USA.gov is the U.S. government's official web portal to all federal, state and local government web resources and services.